Regional Weather Roundup
Issued by NWS Cleveland, OH

Home | Current Version | Previous Version | Text Only | Print | Product List | Glossary On
Versions: 1 2 3 4 5 6 7 8 9 10 11 12 13 14 15 16 17 18 19 20 21 22 23 24 25 26 27 28 29 30 31 32 33 34 35 36 37 38 39 40 41 42 43 44 45 46 47 48 49 50
000
ASUS41 KCLE 010312
RWRCLE
OHIO REGIONAL WEATHER ROUNDUP
NATIONAL WEATHER SERVICE WILMINGTON, OH
1100 PM EDT SAT APR 30 2016

NOTE: "FAIR" INDICATES FEW OR NO CLOUDS BELOW 12,000 FEET WITH NO
SIGNIFICANT WEATHER AND/OR OBSTRUCTIONS TO VISIBILITY.

OHZ001>008-015>018-024>027-034-035-043-044-010400-
   NORTHWEST OHIO

CITY           SKY/WX    TMP DP  RH WIND       PRES   REMARKS
DEFIANCE       CLOUDY    50  47  89 E10       29.92S
FINDLAY        LGT RAIN  53  48  83 E7        29.89F
TOLEDO EXPRESS LGT RAIN  49  47  93 E13       29.93F FOG
TOLEDO EXEC    LGT RAIN  49  47  93 E8G18     29.95F FOG
LIMA           CLOUDY    54  53  97 SE8       29.89F
$$

OHZ009>014-019>023-028>033-038-089-010400-
   NORTHEAST OHIO

CITY           SKY/WX    TMP DP  RH WIND       PRES   REMARKS
CLE-HOPKINS    LGT RAIN  54  52  93 E7        29.97F FOG
CLE-LAKEFRONT  LGT RAIN  53  51  93 E7        29.95F FOG
CUY CO. ARPT   LGT RAIN  52  50  93 E7        29.98F FOG
LORAIN-ELYRIA  LGT RAIN  51  49  92 SE10      29.94F FOG
ASHTABULA      CLOUDY    52  50  93 E13       30.01F
AKRON-CANTON   LGT RAIN  54  52  93 E8        29.96F FOG
WOOSTER        HVY RAIN  53  52  96 SE7       29.96F FOG
MANSFIELD      LGT RAIN  52  52 100 SE13      29.93F
YOUNGSTOWN     LGT RAIN  52  50  93 E10       29.99F
$$

OHZ042-051>053-060>062-070>072-077>081-010400-
  SOUTHWEST OHIO

CITY           SKY/WX    TMP DP  RH WIND       PRES   REMARKS
CINC-COVINGTON LGT RAIN  61  60  97 SE9       29.90F
CINC-LUNKEN    LGT RAIN  59  59 100 VRB5      29.91S
HAMILTON       LGT RAIN  60  59  96 VRB3      29.90F
DAYTON         CLOUDY    57  56  96 S8        29.91R
WRIGHT-PAT AFB CLOUDY    57  57 100 VRB3      29.90S
DAYTON GENERAL LGT RAIN  58  55  90 S10       29.89F
WILMINGTON     LGT RAIN  57  56  96 S10       29.91F
$$

OHZ036-037-039>041-045>050-054>059-063>069-073>076-082>088-010400-
  CENTRAL AND SOUTHEAST OHIO

CITY           SKY/WX    TMP DP  RH WIND       PRES   REMARKS
COLUMBUS       LGT RAIN  55  55 100 SE6       29.93S FOG
OSU AIRPORT    CLOUDY    57  56  96 S8        29.92F FOG
BOLTON FIELD   CLOUDY    56  56 100 S8        29.94S
RICKENBACK AFB RAIN      56  56  99 S6        29.93F
NEWARK         CLOUDY    58  55  90 S3        29.93F
MARION         CLOUDY    54  52  93 SE10      29.92F FOG
LANCASTER      CLOUDY    58  56  93 SE8       29.94F
ZANESVILLE     LGT RAIN  59  56  89 SE3       29.96S
NEW PHILLY     LGT RAIN  55  54  96 CALM      29.97S FOG
$$




USA.gov is the U.S. government's official web portal to all federal, state and local government web resources and services.